TimeCST,TemperatureF,Dew PointF,Humidity,Sea Level PressureIn,VisibilityMPH,Wind Direction,Wind SpeedMPH,Gust SpeedMPH,PrecipitationIn,Events,Conditions,WindDirDegrees,DateUTC
12:15 AM,53.6,48.2,82,30.25,10.0,SSW,5.8,-,N/A,,Overcast,210,2013-11-11 06:15:00
12:35 AM,51.8,46.4,82,30.25,10.0,SSW,4.6,-,N/A,,Scattered Clouds,210,2013-11-11 06:35:00
12:55 AM,51.8,46.4,82,30.25,10.0,SW,5.8,-,N/A,,Mostly Cloudy,220,2013-11-11 06:55:00
1:15 AM,51.8,46.4,82,30.25,10.0,SW,3.5,-,N/A,,Overcast,220,2013-11-11 07:15:00
1:35 AM,51.8,48.2,88,30.25,10.0,Calm,Calm,-,N/A,,Overcast,0,2013-11-11 07:35:00
1:55 AM,51.8,46.4,82,30.24,10.0,South,3.5,-,N/A,,Overcast,180,2013-11-11 07:55:00
2:15 AM,51.8,46.4,82,30.24,10.0,SSW,4.6,-,N/A,,Mostly Cloudy,200,2013-11-11 08:15:00
2:35 AM,51.8,46.4,82,30.23,10.0,South,4.6,-,N/A,,Mostly Cloudy,190,2013-11-11 08:35:00
2:55 AM,51.8,48.2,88,30.23,10.0,South,4.6,-,N/A,,Overcast,180,2013-11-11 08:55:00
3:15 AM,51.8,48.2,88,30.23,10.0,South,3.5,-,N/A,,Overcast,170,2013-11-11 09:15:00
3:35 AM,51.8,50.0,94,30.22,10.0,South,4.6,-,N/A,,Overcast,180,2013-11-11 09:35:00
3:55 AM,53.6,50.0,88,30.22,10.0,South,3.5,-,N/A,,Overcast,170,2013-11-11 09:55:00
4:15 AM,53.6,50.0,88,30.22,10.0,Calm,Calm,-,N/A,,Overcast,0,2013-11-11 10:15:00
4:35 AM,53.6,50.0,88,30.22,10.0,South,3.5,-,N/A,,Overcast,170,2013-11-11 10:35:00
4:55 AM,53.6,50.0,88,30.22,10.0,Calm,Calm,-,N/A,,Overcast,0,2013-11-11 10:55:00
5:15 AM,53.6,50.0,88,30.22,10.0,SSW,4.6,-,N/A,,Overcast,200,2013-11-11 11:15:00
5:35 AM,53.6,51.8,94,30.23,10.0,South,3.5,-,N/A,,Overcast,190,2013-11-11 11:35:00
5:55 AM,53.6,51.8,94,30.22,10.0,South,4.6,-,N/A,,Overcast,170,2013-11-11 11:55:00
6:15 AM,51.8,50.0,94,30.22,10.0,South,4.6,-,N/A,,Mostly Cloudy,170,2013-11-11 12:15:00
6:35 AM,50.0,50.0,100,30.22,10.0,Calm,Calm,-,N/A,,Mostly Cloudy,0,2013-11-11 12:35:00
6:55 AM,50.0,50.0,100,30.23,10.0,SE,3.5,-,N/A,,Mostly Cloudy,140,2013-11-11 12:55:00
7:15 AM,50.0,50.0,100,30.23,10.0,SE,3.5,-,N/A,,Scattered Clouds,140,2013-11-11 13:15:00
7:35 AM,50.0,50.0,100,30.23,5.0,SE,3.5,-,N/A,,Scattered Clouds,130,2013-11-11 13:35:00
7:55 AM,51.8,51.8,100,30.24,10.0,Calm,Calm,-,N/A,,Clear,0,2013-11-11 13:55:00
8:15 AM,53.6,51.8,94,30.24,10.0,Calm,Calm,-,N/A,,Clear,0,2013-11-11 14:15:00
8:35 AM,55.4,53.6,94,30.25,10.0,SSE,3.5,-,N/A,,Clear,160,2013-11-11 14:35:00
8:55 AM,59.0,53.6,82,30.25,10.0,SSW,5.8,-,N/A,,Clear,200,2013-11-11 14:55:00
9:15 AM,60.8,53.6,77,30.25,10.0,SSW,6.9,-,N/A,,Clear,210,2013-11-11 15:15:00
9:35 AM,62.6,55.4,77,30.25,10.0,SW,9.2,-,N/A,,Clear,220,2013-11-11 15:35:00
9:55 AM,64.4,55.4,73,30.24,10.0,SSW,9.2,-,N/A,,Clear,210,2013-11-11 15:55:00
10:15 AM,64.4,55.4,73,30.24,10.0,SW,12.7,-,N/A,,Clear,230,2013-11-11 16:15:00
10:35 AM,68.0,57.2,68,30.23,10.0,WSW,12.7,18.4,N/A,,Clear,240,2013-11-11 16:35:00
10:55 AM,68.0,57.2,68,30.23,10.0,SSW,12.7,16.1,N/A,,Clear,210,2013-11-11 16:55:00
11:15 AM,69.8,59.0,68,30.22,10.0,WSW,8.1,-,N/A,,Scattered Clouds,240,2013-11-11 17:15:00
11:35 AM,71.6,59.0,64,30.22,10.0,WSW,9.2,-,N/A,,Scattered Clouds,240,2013-11-11 17:35:00
11:55 AM,71.6,59.0,64,30.21,10.0,SW,12.7,17.3,N/A,,Scattered Clouds,230,2013-11-11 17:55:00
12:15 PM,71.6,59.0,64,30.20,10.0,SW,10.4,-,N/A,,Scattered Clouds,220,2013-11-11 18:15:00
12:35 PM,73.4,59.0,61,30.20,10.0,West,10.4,-,N/A,,Clear,260,2013-11-11 18:35:00
12:55 PM,73.4,59.0,61,30.19,10.0,West,8.1,-,N/A,,Clear,260,2013-11-11 18:55:00
1:15 PM,73.4,59.0,61,30.18,10.0,WSW,8.1,-,N/A,,Clear,250,2013-11-11 19:15:00
1:35 PM,73.4,59.0,61,30.18,10.0,West,5.8,-,N/A,,Mostly Cloudy,280,2013-11-11 19:35:00
1:55 PM,71.6,59.0,64,30.18,10.0,West,5.8,-,N/A,,Overcast,270,2013-11-11 19:55:00
2:15 PM,73.4,59.0,61,30.17,10.0,West,6.9,-,N/A,,Overcast,270,2013-11-11 20:15:00
2:35 PM,73.4,59.0,61,30.17,10.0,West,6.9,-,N/A,,Overcast,270,2013-11-11 20:35:00
2:55 PM,71.6,59.0,64,30.17,10.0,West,8.1,-,N/A,,Overcast,270,2013-11-11 20:55:00
3:15 PM,71.6,59.0,64,30.17,10.0,West,6.9,-,N/A,,Overcast,280,2013-11-11 21:15:00
3:35 PM,71.6,59.0,64,30.18,10.0,West,6.9,-,N/A,,Overcast,280,2013-11-11 21:35:00
3:55 PM,71.6,59.0,64,30.18,10.0,WNW,6.9,-,N/A,,Overcast,300,2013-11-11 21:55:00
4:15 PM,71.6,60.8,69,30.18,10.0,North,6.9,-,N/A,,Overcast,360,2013-11-11 22:15:00
4:35 PM,68.0,60.8,78,30.19,10.0,North,11.5,-,N/A,,Mostly Cloudy,360,2013-11-11 22:35:00
4:55 PM,68.0,60.8,78,30.20,10.0,North,10.4,-,N/A,,Mostly Cloudy,10,2013-11-11 22:55:00
5:15 PM,66.2,60.8,83,30.21,10.0,NNE,10.4,17.3,N/A,,Mostly Cloudy,20,2013-11-11 23:15:00
5:35 PM,64.4,60.8,88,30.22,10.0,NNE,10.4,-,N/A,,Mostly Cloudy,20,2013-11-11 23:35:00
5:55 PM,64.4,60.8,88,30.22,10.0,North,8.1,16.1,N/A,,Overcast,10,2013-11-11 23:55:00
6:15 PM,64.4,59.0,83,30.23,10.0,North,10.4,-,N/A,,Overcast,10,2013-11-12 00:15:00
6:35 PM,62.6,59.0,88,30.25,10.0,North,8.1,-,N/A,,Overcast,10,2013-11-12 00:35:00
6:55 PM,62.6,59.0,88,30.26,10.0,North,12.7,-,N/A,,Overcast,10,2013-11-12 00:55:00
7:15 PM,62.6,59.0,88,30.27,10.0,North,13.8,17.3,N/A,,Overcast,360,2013-11-12 01:15:00
7:35 PM,62.6,59.0,88,30.28,10.0,North,10.4,-,N/A,,Overcast,10,2013-11-12 01:35:00
7:55 PM,62.6,59.0,88,30.29,10.0,North,16.1,23.0,N/A,,Overcast,10,2013-11-12 01:55:00
8:15 PM,60.8,57.2,88,30.31,10.0,NNE,13.8,25.3,N/A,Rain,Light Rain,20,2013-11-12 02:15:00
8:35 PM,55.4,53.6,94,30.32,10.0,NNE,21.9,31.1,N/A,,Overcast,30,2013-11-12 02:35:00
8:55 PM,53.6,50.0,88,30.35,10.0,North,20.7,26.5,N/A,,Overcast,10,2013-11-12 02:55:00
9:15 PM,51.8,48.2,88,30.37,10.0,North,18.4,24.2,N/A,,Overcast,10,2013-11-12 03:15:00
9:35 PM,48.2,46.4,93,30.39,10.0,North,18.4,27.6,N/A,,Overcast,10,2013-11-12 03:35:00
9:55 PM,46.4,44.6,93,30.40,10.0,NNE,16.1,25.3,N/A,,Overcast,20,2013-11-12 03:55:00
10:15 PM,46.4,44.6,93,30.42,10.0,NNE,13.8,24.2,N/A,,Overcast,20,2013-11-12 04:15:00
10:35 PM,46.4,42.8,87,30.44,10.0,NNE,18.4,27.6,N/A,,Overcast,20,2013-11-12 04:35:00
10:55 PM,44.6,42.8,93,30.45,10.0,NNE,12.7,19.6,N/A,,Overcast,20,2013-11-12 04:55:00
11:15 PM,44.6,41.0,87,30.46,10.0,North,17.3,26.5,N/A,,Overcast,10,2013-11-12 05:15:00
11:35 PM,44.6,41.0,87,30.47,10.0,North,16.1,25.3,N/A,,Overcast,10,2013-11-12 05:35:00
11:55 PM,42.8,39.2,87,30.48,10.0,North,16.1,24.2,N/A,,Overcast,10,2013-11-12 05:55:00